This is the latest recevied weather packets stored in our database for station/object KB4NWJ. If no packets are shown the sender has not sent any weather packets the latest 10 day(s).
| Time | Temp. | Humidity | Pressure | Rain* | Wind** | Luminosity | Snow |
|---|---|---|---|---|---|---|---|
| 1777852562 | 17.78° C | 47% | 1018.7 hPa | 0 mm | - | 14 W/m² | - |
| 1777852259 | 17.78° C | 47% | 1018.4 hPa | 0 mm | - | 17 W/m² | - |
| 1777851956 | 17.78° C | 47% | 1018.4 hPa | 0 mm | - | 19 W/m² | - |
| 1777851654 | 18.33° C | 49% | 1018.4 hPa | 0 mm | - | 22 W/m² | - |
| 1777851351 | 18.33° C | 46% | 1018.3 hPa | 0 mm | - | 23 W/m² | - |
| 1777851047 | 18.33° C | 44% | 1018.4 hPa | 0 mm | - | 26 W/m² | - |
| 1777850744 | 18.89° C | 45% | 1018.4 hPa | 0 mm | - | 28 W/m² | - |
| 1777850441 | 18.89° C | 45% | 1018.3 hPa | 0 mm | - | 29 W/m² | - |
| 1777850139 | 18.89° C | 42% | 1018.4 hPa | 0 mm | - | 30 W/m² | - |
| 1777849835 | 18.89° C | 43% | 1018.5 hPa | 0 mm | - | 32 W/m² | - |
| 1777849532 | 18.89° C | 44% | 1018.4 hPa | 0 mm | - | 33 W/m² | - |
| 1777849230 | 19.44° C | 45% | 1018.4 hPa | 0 mm | - | 34 W/m² | - |
| 1777848927 | 19.44° C | 43% | 1018.3 hPa | 0 mm | - | 36 W/m² | - |
| 1777848627 | 20° C | 43% | 1018.4 hPa | 0 mm | - | 37 W/m² | - |
| 1777848325 | 20.56° C | 39% | 1018.4 hPa | 0 mm | - | 146 W/m² | - |
| 1777848022 | 21.11° C | 42% | 1018.1 hPa | 0 mm | - | 157 W/m² | - |
| 1777847720 | 20.56° C | 44% | 1018.3 hPa | 0 mm | - | 183 W/m² | - |
| 1777847415 | 20.56° C | 42% | 1018.4 hPa | 0 mm | - | 190 W/m² | - |
| 1777847114 | 21.67° C | 43% | 1018.2 hPa | 0 mm | - | 203 W/m² | - |
| 1777846812 | 21.67° C | 40% | 1018.4 hPa | 0 mm | - | 237 W/m² | - |
| 1777846510 | 21.11° C | 40% | 1018.3 hPa | 0 mm | - | 251 W/m² | - |
| 1777846207 | 21.67° C | 38% | 1018.5 hPa | 0 mm | - | 266 W/m² | - |
| 1777845903 | 22.22° C | 41% | 1018.2 hPa | 0 mm | - | 285 W/m² | - |
| 1777845600 | 22.22° C | 39% | 1018.2 hPa | 0 mm | - | 299 W/m² | - |
| 1777845297 | 22.22° C | 40% | 1018.6 hPa | 0 mm | - | 295 W/m² | - |
* Rain latest hour (hover to see other rain measurements)
** Current wind speed in m/s (hover to see current wind gust speed)